Home > Weather > Burgdorf > Past weeks

Flag for Switzerland Weather for the Past 2 Weeks in Burgdorf, Bern, Switzerland

Now
46 °F

Passing clouds.


Feels Like: 44 °F
Forecast: 41 / 56 °F
Wind: 5 mph from Southeast

Location: Bern / Belp

Current Time: May 2, 2016 at 11:34:35 PM

Latest Report: May 2, 2016 at 10:50 PM


Visibility: N/A

Pressure: 30.15 "Hg (28.24 "Hg at 539m altitude)

Humidity: 93%

Dew Point: 45 °F

Location of BurgdorfLocation

Historic Weather in Burgdorf — Graph

°F

Burgdorf Temperature Yesterday

Maximum temperature yesterday: 45 °F (at 12:20 PM)
Minimum temperature yesterday: 37 °F (at 4:20 AM)
Average temperature yesterday: 41 °F

High & Low Weather Summary for the Past Weeks

 TemperatureHumidityPressure
High72 °F (Apr 21, 3:20 PM)100% (Apr 17, 10:50 PM)30.27 "Hg (Apr 17, 10:50 PM)
Low28 °F (Apr 28, 6:50 AM)32% (Apr 28, 4:20 PM)29.68 "Hg (Apr 26, 4:20 PM)
Average45 °F81%30.02 "Hg
* Reported Apr 17 10:20 PM — May 2 10:20 PM, Burgdorf, Weather by CustomWeather, © 2016

Note: Actual official high and low records may vary slightly from our data, if they occured in-between our weather recording intervals... More about our weather records

Advertising

Burgdorf Weather History for the Previous 24 Hours

Scroll right to see more
 ConditionsComfort  
Time TempWeatherWind HumidityBarometerVisibility
10:20 PM
Mon, May 2
48 °FPartly cloudy.3 mph94%30.15 "HgN/A
9:50 PM48 °FPassing clouds.1 mph87%30.15 "HgN/A
9:20 PM48 °FPartly sunny.5 mph87%30.12 "HgN/A
8:50 PM54 °FPartly sunny.2 mph77%30.12 "HgN/A
8:20 PM55 °FPartly sunny.5 mph67%30.12 "HgN/A
7:50 PM57 °FScattered clouds.6 mph59%30.12 "HgN/A
7:20 PM57 °FScattered clouds.5 mph59%30.12 "HgN/A
6:50 PM59 °FPassing clouds.5 mph59%30.12 "HgN/A
6:20 PM59 °FPassing clouds.6 mph59%30.12 "HgN/A
5:50 PM57 °FScattered clouds.9 mph59%30.12 "HgN/A
5:20 PM59 °FScattered clouds.7 mph59%30.12 "HgN/A
4:50 PM57 °FScattered clouds.6 mph67%30.12 "HgN/A
4:20 PM57 °FPartly sunny.8 mph63%30.15 "HgN/A
3:50 PM57 °FScattered clouds.9 mph67%30.12 "HgN/A
3:20 PM55 °FScattered clouds.8 mph72%30.15 "HgN/A
2:50 PM55 °FScattered clouds.6 mph67%30.15 "HgN/A
2:20 PM55 °FScattered clouds.7 mph72%30.15 "HgN/A
1:50 PM55 °FBroken clouds.10 mph72%30.15 "HgN/A
1:20 PM54 °FScattered clouds.10 mph77%30.15 "HgN/A
12:50 PM52 °FBroken clouds.6 mph77%30.15 "HgN/A
12:20 PM54 °FPartly sunny.6 mph77%30.15 "HgN/A
11:20 AM48 °FBroken clouds.1 mph87%30.18 "HgN/A
10:50 AM46 °FBroken clouds.2 mph93%30.18 "HgN/A
10:20 AM45 °FBroken clouds.3 mph93%30.18 "HgN/A
9:50 AM45 °FBroken clouds.2 mph93%30.18 "HgN/A
9:20 AM45 °FPartly sunny.5 mph93%30.18 "HgN/A
8:20 AM41 °FBroken clouds.8 mph100%30.18 "HgN/A
7:20 AM41 °FDrizzle. Broken clouds.6 mph100%30.18 "HgN/A
6:50 AM41 °FPartly cloudy.8 mph100%30.18 "HgN/A
6:20 AM41 °FDrizzle. Mostly cloudy.6 mph100%30.18 "Hg4 mi
5:20 AM41 °FPartly cloudy.6 mph100%30.18 "Hg4 mi
4:50 AM41 °FPassing clouds.6 mph100%30.18 "Hg3 mi
4:20 AM41 °FDrizzle. Low clouds.5 mph100%30.18 "HgN/A
3:50 AM41 °FDrizzle. Overcast.5 mph100%30.18 "HgN/A
3:20 AM41 °FLow clouds.6 mph100%30.18 "HgN/A
2:50 AM41 °FDrizzle. Mostly cloudy.3 mph100%30.18 "HgN/A
2:20 AM41 °FSprinkles. Low clouds.5 mph100%30.18 "HgN/A
1:50 AM41 °FDrizzle. Overcast.6 mph100%30.18 "HgN/A
1:20 AM41 °FSprinkles. Overcast.5 mph100%30.18 "HgN/A
12:20 AM41 °FLight rain. Low clouds.6 mph100%30.18 "HgN/A
11:50 PM
Sun, May 1
41 °FLight rain. Partly cloudy.6 mph100%30.18 "HgN/A
11:20 PM41 °FLight rain. Partly cloudy.6 mph100%30.18 "HgN/A
Weather by CustomWeather, © 2016

See weather overviewHow to use our weather pages